GFSWCAN_700_rhum_003.txt.gz
RH
98 97 84 77 74 72 64 52 47 41 41 41 42 44 47 49 49 48 49 52 52 49 47 44 42 42 45 46 46 46 48 46 50 52 61 64 71 69 74 74 75 82 86 86 89 85 79 72 87 96 99 98 98 96
97 97 92 78 74 71 71 69 65 60 52 50 50 49 49 51 51 50 50 52 53 54 52 51 46 42 40 44 45 45 52 52 59 60 65 74 77 86 85 91 76 85 83 89 95 84 76 86 100 99 99 98 97 93
96 97 95 85 80 73 69 68 69 70 70 67 66 64 61 58 59 58 54 53 55 56 55 57 50 45 43 41 43 42 44 52 55 67 74 77 80 83 87 82 79 77 84 98 100 86 79 86 99 99 98 92 85 84
89 93 95 92 90 85 76 66 66 66 68 69 68 68 69 70 70 68 65 61 59 60 64 61 55 55 53 52 51 49 50 50 59 69 76 80 82 84 91 91 90 75 100 97 98 67 84 80 99 99 94 89 81 76
83 91 92 97 95 85 94 75 67 62 62 65 64 69 73 75 74 73 71 67 64 65 66 62 62 62 66 59 56 53 51 56 58 68 80 85 83 87 91 97 100 85 87 98 98 100 97 98 96 97 93 87 68 82
53 83 94 94 96 99 100 99 86 65 60 63 65 68 72 75 77 75 71 68 67 68 74 67 53 50 50 49 54 49 58 56 51 58 67 89 100 100 98 99 98 87 98 97 100 93 97 98 94 91 78 49 40 44
41 60 93 97 98 98 99 99 99 92 78 63 64 65 67 68 70 74 72 69 69 72 77 80 67 38 32 32 39 51 56 50 57 65 70 84 100 99 98 98 75 90 96 95 98 96 86 95 87 66 44 48 53 60
37 49 75 96 96 98 99 99 99 96 88 84 72 65 63 62 60 61 68 73 76 73 72 83 73 61 54 58 55 53 58 66 68 77 82 86 93 89 96 95 88 95 91 99 93 93 90 78 74 58 58 57 53 75
53 61 65 70 92 95 98 99 98 98 99 99 92 81 74 68 66 60 65 70 72 81 98 91 81 92 85 78 79 73 86 84 84 92 96 99 100 98 98 96 96 99 100 97 87 81 81 82 74 70 75 84 78 73
76 81 81 89 97 98 97 97 99 99 99 98 97 97 96 81 81 86 100 99 98 98 99 100 100 99 98 96 95 97 93 94 99 99 87 96 100 99 100 99 94 100 99 86 91 86 80 79 72 63 63 75 75 57
90 85 93 92 97 97 98 99 98 98 98 99 98 98 97 98 99 98 98 99 98 98 98 100 98 98 97 97 97 98 98 97 93 87 95 100 92 76 76 90 94 80 69 75 82 83 76 61 54 63 71 47 28 24
97 87 94 68 61 71 96 98 98 98 98 98 98 98 98 99 98 98 98 98 97 98 98 94 96 98 96 93 93 98 97 91 97 95 99 89 77 77 79 73 67 71 71 76 73 54 56 75 77 54 36 27 26 32
98 95 92 90 69 56 57 91 95 96 97 97 97 97 96 96 97 95 95 99 99 92 77 78 91 93 90 99 98 94 98 99 97 94 87 72 66 71 76 74 64 64 62 64 60 70 61 51 36 30 28 31 38 33
92 95 89 96 76 66 71 78 85 93 94 96 93 95 93 92 85 76 66 57 59 54 66 69 73 77 84 99 98 97 98 97 94 88 64 60 59 57 50 42 42 53 60 51 49 50 38 27 28 26 30 35 36 39
100 93 87 91 92 80 80 74 72 68 97 88 87 79 81 72 59 56 50 50 48 47 58 77 92 100 100 98 93 97 94 83 69 45 37 38 42 40 39 42 44 47 53 54 41 28 29 30 28 24 29 32 45 44
97 95 83 88 96 96 90 91 83 62 95 79 65 56 60 61 61 63 67 64 69 78 87 95 98 97 98 94 93 94 88 65 48 44 47 48 38 36 40 39 43 49 39 27 28 30 29 28 31 32 35 48 46 43
98 92 86 81 94 95 96 95 87 86 86 84 65 56 49 44 44 42 43 44 53 75 89 97 92 89 88 91 94 84 69 61 58 57 48 35 38 35 34 27 22 23 27 33 32 28 31 37 39 46 48 43 42 48
96 99 96 88 91 94 96 95 95 94 87 73 62 54 48 46 48 49 48 45 43 56 93 96 82 62 51 42 32 33 44 54 54 48 38 35 28 20 18 22 26 33 36 36 31 33 40 44 46 47 50 52 49 52
96 97 100 100 96 96 95 94 93 82 69 62 53 48 44 40 39 43 60 71 76 74 68 62 61 53 43 43 51 58 60 54 43 32 25 20 20 26 30 32 35 34 32 30 36 44 46 46 51 60 57 56 53 52
98 98 98 96 96 100 98 92 86 81 68 64 59 54 54 58 74 82 84 81 75 70 68 62 46 46 50 58 62 59 47 34 24 21 20 25 32 33 35 38 37 35 31 41 53 56 50 48 54 54 53 51 48 48
96 96 96 97 88 92 92 82 79 76 76 69 60 53 57 67 70 75 76 75 72 66 55 46 52 62 56 44 37 32 30 32 32 33 29 23 27 32 37 41 47 41 49 63 67 70 70 62 58 52 49 50 52 56
95 96 96 93 93 92 86 85 81 74 66 60 55 60 60 63 65 66 65 64 57 55 54 48 43 37 32 30 32 32 33 35 34 33 35 38 36 38 40 45 52 62 77 84 85 77 74 74 76 72 61 62 64 62
95 97 98 98 98 89 85 79 78 78 73 73 67 68 67 65 62 60 58 49 43 38 36 34 32 29 24 24 26 31 35 37 38 38 42 49 48 54 58 64 77 82 85 88 90 87 83 83 82 78 69 65 68 72
96 95 97 94 93 88 85 80 77 76 76 80 81 78 73 67 60 53 45 39 38 36 33 29 27 27 27 28 30 34 37 44 49 50 60 70 75 77 82 81 82 83 88 88 91 92 89 88 87 76 73 74 71 65
95 95 87 86 83 81 78 73 71 72 72 68 68 68 63 56 50 44 37 34 33 32 34 33 35 34 32 34 38 45 63 73 70 60 62 78 82 77 75 78 82 87 91 96 99 100 97 93 85 78 77 71 62 63
88 82 73 73 78 76 75 66 66 66 67 72 69 58 50 53 54 48 37 43 46 46 48 47 46 53 50 48 55 64 77 91 93 83 70 78 80 80 75 74 73 87 100 100 100 100 88 81 82 81 70 64 66 68
71 66 65 67 63 61 66 70 69 52 50 51 52 60 70 73 63 56 55 57 61 64 68 76 89 90 83 77 76 71 76 83 81 75 69 66 70 79 78 82 80 85 95 99 100 96 92 90 80 68 64 65 70 75
68 63 61 60 58 64 61 58 56 55 57 58 62 70 79 74 73 80 88 94 96 95 94 98 100 100 89 78 75 72 70 72 69 62 62 67 78 80 85 89 90 93 100 100 98 97 95 81 74 74 74 73 74 80
64 68 69 68 68 67 64 64 66 73 88 92 91 90 96 99 98 97 94 96 93 91 87 84 87 90 88 86 88 86 82 77 73 68 67 80 93 98 99 99 97 97 98 99 100 98 95 90 86 85 83 80 82 84
70 72 74 76 81 81 87 98 95 100 96 92 85 83 81 82 83 81 82 76 73 66 56 52 58 70 80 80 71 68 70 76 85 92 98 98 98 96 99 100 99 99 98 98 98 98 96 89 87 87 89 91 97 98
94 96 96 92 84 86 96 97 90 86 78 70 61 48 32 34 32 29 29 29 46 70 85 93 89 70 54 54 68 86 97 99 99 100 100 100 99 100 100 100 100 100 100 99 96 92 87 84 85 87 86 85 86 88
92 95 97 97 75 57 43 37 28 23 20 20 23 28 29 29 32 33 42 72 78 79 82 83 92 98 98 98 99 99 99 100 100 100 100 100 99 99 99 98 98 98 95 87 81 81 85 88 90 91 91 91 92 94
50 40 40 40 34 24 19 18 17 16 15 20 23 21 24 40 45 51 57 62 66 78 94 96 96 100 98 97 98 98 99 100 99 99 100 99 99 100 100 100 98 95 87 77 79 84 89 90 90 90 89 90 89 88

GFSWCAN_700_rhum_009.txt.gz
RH
91 91 79 68 50 48 51 57 59 57 53 52 49 44 36 35 39 45 45 40 34 36 39 45 51 47 40 54 42 36 38 41 37 35 38 38 40 47 42 54 54 66 82 85 93 98 92 80 86 92 95 98 92 80
99 91 87 83 64 50 46 46 48 53 54 53 50 40 40 33 39 42 45 45 44 42 40 37 36 37 35 48 70 42 57 32 36 35 36 40 35 41 43 76 66 70 79 85 89 80 78 88 99 99 100 90 96 97
98 99 94 93 86 76 56 47 45 45 47 50 47 39 39 38 41 45 47 48 48 49 48 49 45 42 42 39 38 40 42 39 35 35 40 47 45 40 42 45 45 44 75 85 98 87 94 98 96 99 94 95 92 98
98 98 99 96 89 87 79 66 51 48 46 45 44 41 41 40 42 46 48 49 50 50 51 51 51 49 47 46 44 41 39 38 40 46 47 51 51 48 44 42 65 48 84 87 94 94 96 100 97 100 90 82 84 72
90 97 99 100 93 86 83 80 74 61 53 48 46 45 42 41 44 47 49 50 51 52 56 50 49 51 52 50 51 52 52 51 44 49 51 50 58 59 60 60 44 36 77 94 95 100 87 98 98 96 95 90 81 77
51 74 97 98 98 95 93 84 80 77 73 66 58 55 52 53 55 59 62 60 60 59 58 58 56 55 57 59 60 58 57 53 55 55 51 59 76 65 74 64 40 52 59 72 99 86 86 94 98 98 98 82 76 76
28 52 74 86 91 94 97 94 82 80 77 76 74 72 72 72 73 75 76 68 68 69 67 68 71 66 65 67 62 59 54 59 50 54 55 52 59 83 86 61 50 63 64 67 75 77 83 98 99 95 71 71 69 58
16 20 34 61 78 85 92 97 87 82 78 74 72 71 71 75 75 77 79 79 76 75 76 83 81 72 62 58 60 62 58 58 57 66 62 62 81 90 93 55 74 74 72 82 77 85 98 97 89 72 71 69 44 35
23 16 12 21 52 79 85 89 90 88 88 89 85 74 71 72 72 75 86 83 82 84 92 88 80 79 67 60 54 51 52 55 61 66 64 72 86 90 76 79 77 76 90 87 84 100 94 82 71 49 44 38 31 28
28 24 17 9 12 51 80 83 92 96 99 99 99 98 84 73 77 81 95 90 91 85 88 81 83 86 72 60 54 56 64 74 73 73 79 88 77 73 70 73 78 80 92 83 98 89 79 58 35 33 32 30 25 19
26 25 22 16 9 11 51 72 86 98 99 98 98 98 99 95 97 100 100 98 97 95 80 81 88 94 84 77 76 80 85 91 94 94 100 99 94 73 64 62 60 64 83 93 85 66 35 29 29 28 26 25 19 18
30 33 28 23 15 11 19 51 82 96 98 98 98 98 99 98 99 98 98 93 87 95 75 70 66 79 98 96 92 97 98 97 98 98 99 94 85 64 53 50 55 64 72 69 60 28 27 27 25 24 26 18 19 22
39 43 45 48 32 22 28 47 72 92 98 98 98 98 98 98 98 97 95 96 94 86 86 90 97 95 100 100 99 98 96 97 96 96 92 89 68 52 53 60 60 60 54 29 28 28 25 30 34 27 17 20 25 24
78 69 70 78 70 54 54 77 96 98 97 98 97 97 97 96 96 97 98 97 92 96 95 99 99 99 99 98 97 96 96 95 96 100 75 65 55 60 63 62 47 27 28 30 27 28 33 24 16 17 21 27 26 24
62 67 77 85 81 65 64 66 93 98 96 96 96 96 96 95 95 96 97 97 97 97 98 98 97 96 95 95 96 95 94 95 95 97 72 54 53 50 47 34 34 37 35 33 33 27 16 16 19 21 25 25 25 32
73 75 82 84 85 80 69 79 95 98 95 95 95 95 94 95 94 94 95 95 95 96 96 96 96 94 95 95 96 96 96 92 80 69 65 63 57 44 42 44 49 44 40 34 21 17 19 22 23 24 24 25 31 43
54 78 80 82 84 82 79 87 97 97 96 95 94 94 95 91 92 94 92 93 93 96 97 96 94 94 94 96 94 87 84 80 77 74 73 68 61 58 54 49 46 40 28 20 20 23 23 25 28 29 27 32 45 50
21 50 85 92 84 78 90 78 92 96 94 91 87 83 88 88 87 86 85 80 74 76 84 88 84 86 83 84 76 70 69 70 66 58 55 52 51 53 50 43 33 24 23 24 24 26 28 29 31 34 39 50 61 65
41 45 84 89 86 90 99 97 100 97 90 88 92 82 73 74 72 66 58 54 56 58 62 80 93 92 84 79 76 71 63 58 54 52 49 49 48 40 30 26 25 25 24 25 27 28 30 40 44 52 69 76 69 65
61 75 93 97 90 99 99 96 96 97 96 92 90 79 64 57 54 54 53 55 57 59 70 83 69 69 71 71 72 68 61 54 52 48 39 30 25 22 22 25 26 26 25 28 32 37 48 55 63 75 77 79 80 77
93 88 99 96 98 98 96 91 93 88 75 63 61 60 57 55 54 54 57 65 73 78 72 61 68 68 63 60 54 52 49 41 33 28 24 21 22 21 22 26 29 32 36 40 53 64 74 76 76 77 75 79 87 86
75 95 97 96 97 100 98 85 75 68 64 56 56 58 58 55 51 52 54 58 56 51 50 51 50 47 45 45 43 38 32 28 26 24 22 22 22 24 27 33 41 46 59 71 77 79 72 71 72 72 80 84 88 87
98 96 96 97 97 97 96 89 72 65 63 61 58 56 52 48 47 48 49 45 45 47 48 46 42 39 36 34 33 32 31 28 26 27 28 30 30 34 38 48 70 77 74 66 72 70 71 74 76 80 85 90 89 84
96 99 97 96 96 96 87 75 72 71 67 63 59 57 54 50 47 48 46 47 48 43 40 38 36 34 34 35 36 35 34 32 38 40 44 50 55 61 72 65 63 66 74 74 70 68 71 79 86 90 90 90 90 92
98 96 95 94 83 76 67 59 59 60 62 63 67 68 66 61 61 55 48 40 35 32 30 30 31 34 38 39 41 41 41 42 51 65 80 84 84 77 72 68 68 74 75 69 62 61 67 83 87 87 90 93 96 95
95 86 75 69 66 62 61 61 62 61 59 63 66 66 59 60 60 50 39 37 40 41 47 53 56 59 61 61 61 60 61 64 72 89 93 89 84 85 85 86 77 74 76 68 62 61 79 86 94 98 96 98 98 97
78 65 58 54 54 55 56 56 56 57 56 62 61 64 67 58 46 50 43 49 53 62 69 75 80 83 84 85 86 90 96 86 58 35 32 36 42 77 100 100 97 86 79 76 78 93 97 96 98 98 96 99 99 98
61 47 52 51 50 49 47 43 46 56 58 52 49 47 51 57 74 55 64 69 76 85 95 100 100 100 100 90 68 39 24 26 41 46 49 51 56 59 77 95 86 77 90 100 100 99 99 99 98 98 100 100 99 97
49 50 50 50 47 47 50 51 50 50 53 60 65 72 79 79 85 89 93 96 100 100 99 92 76 47 31 27 28 41 48 45 41 47 59 63 64 71 85 94 100 100 100 100 99 99 98 98 99 99 99 99 98 87
53 52 59 59 59 61 64 71 75 80 87 91 93 93 94 91 92 92 88 81 66 47 29 25 28 31 36 50 64 61 55 63 65 68 72 76 85 92 96 99 100 100 100 99 98 100 99 98 100 99 99 97 82 73
62 67 70 72 76 83 88 88 90 93 94 94 82 71 59 57 50 43 34 24 22 26 31 38 48 62 72 72 75 75 70 66 74 84 92 93 92 94 95 96 96 97 98 99 100 100 100 100 100 100 98 89 80 74
81 86 84 80 73 59 52 44 41 38 36 34 31 26 20 17 15 18 19 26 33 41 57 60 75 87 83 80 86 89 82 72 70 82 96 100 100 100 98 100 100 100 99 100 100 100 100 100 100 99 96 88 77 67
43 43 40 40 42 42 38 34 25 15 10 10 13 20 29 34 37 40 40 49 68 80 86 86 85 82 77 77 77 77 77 76 82 93 100 100 99 100 100 100 100 100 100 100 100 100 100 100 100 100 98 84 70 56

GFSWCAN_700_rhum_012.txt.gz
RH
92 82 70 58 57 61 67 69 66 63 59 48 38 37 37 37 40 44 44 38 34 35 45 57 69 83 84 82 80 58 43 40 31 29 30 29 36 61 52 57 48 44 61 66 90 96 89 78 85 88 79 88 96 90
97 87 83 65 55 55 58 65 65 62 59 48 43 46 45 39 34 39 44 46 42 37 35 39 51 59 53 71 81 46 54 34 35 32 30 31 32 39 39 50 54 61 59 67 73 55 78 84 90 84 84 85 95 99
98 98 94 81 61 53 51 55 60 62 61 57 53 52 49 42 36 35 39 43 45 46 44 42 41 40 40 41 36 43 42 42 37 37 29 36 38 35 34 34 31 58 49 62 75 58 72 87 98 96 89 89 90 97
98 98 100 96 87 66 52 48 48 52 55 56 56 54 51 42 39 35 40 44 46 46 49 49 45 44 42 42 41 39 38 39 41 38 40 42 41 40 41 41 59 44 51 53 75 71 87 97 89 80 92 97 98 97
98 98 98 98 97 91 76 62 50 48 46 45 47 50 49 43 40 38 42 48 50 51 56 48 48 47 50 50 50 49 49 48 46 44 43 42 46 45 59 67 53 30 38 59 66 87 92 94 98 98 90 99 98 93
93 96 98 99 97 93 89 86 76 60 50 48 47 46 46 44 42 41 44 48 51 51 52 53 51 48 52 52 51 53 55 56 54 53 52 62 60 58 65 64 36 40 52 70 69 80 77 90 92 84 96 100 94 76
75 90 96 98 98 96 91 87 87 82 73 64 58 52 49 48 46 46 47 46 52 57 58 60 62 56 56 56 60 59 61 62 54 66 73 59 60 74 86 71 38 53 64 97 83 83 96 89 76 88 100 85 52 45
31 50 73 88 96 98 97 94 89 89 82 81 76 72 65 62 59 64 68 66 67 70 74 78 77 70 64 63 64 67 66 63 65 69 75 73 73 83 98 58 41 51 78 82 79 94 94 79 98 98 75 54 51 46
16 14 18 37 65 81 86 89 95 97 97 90 81 78 76 77 78 75 78 79 78 82 91 88 83 84 74 71 70 69 71 72 74 77 72 77 83 83 53 58 64 90 85 88 95 98 88 99 93 71 45 38 31 24
23 20 16 11 10 35 74 80 86 96 99 98 91 86 78 73 72 74 81 86 91 87 87 84 87 88 81 77 71 72 73 78 81 62 62 60 50 46 55 58 68 80 89 98 100 77 100 98 70 35 30 26 21 16
16 20 22 18 13 8 14 64 81 90 99 99 99 100 99 90 89 84 90 93 92 86 80 76 81 90 89 88 81 74 68 70 74 69 82 78 76 75 72 65 65 77 94 99 100 99 99 73 33 27 22 18 17 15
10 15 21 22 19 16 10 12 54 79 100 99 98 99 99 99 99 98 97 93 82 83 78 78 73 70 85 92 97 88 83 80 69 87 99 90 84 85 69 63 55 53 65 73 81 99 74 31 24 20 18 16 14 14
17 22 24 23 21 20 16 12 24 77 93 98 98 98 98 98 98 98 98 100 98 89 87 78 87 83 83 99 100 97 96 95 95 99 92 96 99 81 64 55 55 62 60 69 91 48 27 23 23 21 15 14 16 18
13 28 39 44 36 27 32 26 25 57 93 100 97 97 97 96 97 95 96 100 100 100 100 100 98 91 99 100 98 97 97 96 96 96 95 98 93 94 74 61 60 57 78 65 34 28 27 28 24 16 16 19 21 23
54 67 61 70 69 60 58 59 87 90 97 98 96 96 95 96 96 94 95 96 94 97 98 98 98 98 99 98 96 96 96 96 96 96 97 96 94 89 68 64 65 65 42 39 37 34 34 26 18 19 21 22 25 26
44 59 68 83 83 78 75 63 65 89 95 93 93 91 94 94 95 96 96 97 98 98 97 97 96 96 96 96 96 96 97 96 97 95 94 92 94 85 65 55 48 46 47 43 41 36 25 22 22 21 21 25 28 31
8 31 65 74 80 78 78 76 85 98 97 92 94 90 93 95 94 94 95 95 94 95 96 95 96 96 94 96 95 95 96 92 92 88 87 87 79 70 59 57 50 47 48 42 29 24 22 20 20 21 22 26 35 37
8 16 72 78 74 76 76 74 86 96 93 78 82 72 73 76 82 85 86 89 92 94 95 94 92 92 93 92 85 82 79 78 74 69 59 50 46 49 52 50 46 40 30 25 22 19 20 22 22 22 27 42 52 63
9 33 37 50 79 82 81 86 88 92 88 86 89 79 70 79 81 77 73 72 70 73 76 80 85 81 75 74 81 85 84 74 62 54 52 52 52 50 46 34 26 23 19 18 18 18 20 26 33 45 56 63 74 80
22 29 47 64 80 91 96 96 94 100 93 91 90 85 75 64 66 65 62 59 59 62 83 100 92 75 90 84 77 72 66 61 59 59 56 52 40 30 22 18 17 17 17 19 21 26 39 45 50 64 67 78 77 83
49 66 89 100 97 92 94 93 87 87 94 94 92 88 73 63 58 55 53 52 54 57 51 52 62 69 66 61 54 50 55 58 54 46 38 29 24 21 20 22 22 22 25 28 48 39 44 54 54 52 59 70 77 80
46 97 99 98 98 93 92 91 88 91 88 75 68 63 60 59 59 59 58 59 54 49 52 52 50 46 44 44 46 47 45 41 35 31 28 27 26 27 30 35 36 39 49 68 71 64 56 58 60 63 68 69 76 84
77 95 97 96 97 98 96 87 87 80 72 64 58 61 62 57 51 47 48 47 44 45 47 46 45 45 43 40 37 36 35 33 32 31 31 32 37 42 53 73 90 91 88 76 68 71 74 75 68 61 58 64 80 88
98 97 96 96 96 97 91 87 91 83 72 64 60 58 53 51 49 50 48 47 51 49 47 45 43 41 37 35 36 39 34 35 37 39 42 63 63 59 66 69 71 78 87 85 83 76 69 70 68 63 60 64 83 91
96 97 96 96 97 97 90 92 85 74 69 63 58 59 57 53 54 55 55 55 46 42 37 35 34 36 41 45 50 52 44 48 56 58 62 66 72 76 66 44 28 30 38 45 58 82 97 89 81 77 78 97 100 100
97 96 96 96 96 95 92 91 70 59 55 56 58 58 56 56 58 54 72 42 38 36 38 42 51 56 62 63 68 73 77 82 85 88 87 75 38 25 32 38 39 41 40 60 92 100 97 92 93 100 100 100 99 99
96 94 86 86 82 74 70 61 57 56 55 59 57 56 58 60 56 66 53 44 41 47 51 57 67 77 85 90 94 98 98 93 67 32 22 26 33 36 37 43 54 53 42 55 83 98 99 99 99 99 99 99 100 100
94 93 73 58 55 52 49 47 46 45 47 50 52 53 53 58 70 55 62 60 64 70 75 81 89 98 99 100 93 57 29 25 24 33 48 49 48 49 57 69 75 79 74 76 94 100 100 100 99 99 100 100 99 98
53 53 54 48 45 42 42 42 43 46 47 49 50 52 50 51 63 69 79 88 97 100 100 100 99 95 67 33 26 24 28 46 63 61 52 46 43 50 60 75 83 89 94 96 100 100 100 99 99 100 100 100 100 99
47 44 46 49 50 51 50 53 55 58 58 61 68 76 81 86 90 90 92 91 86 80 68 50 32 26 28 32 46 64 62 63 61 58 62 64 63 59 54 61 87 95 98 99 98 100 100 100 100 100 100 100 100 99
52 56 60 65 66 68 71 75 79 82 88 94 96 95 86 75 60 46 38 33 30 24 22 26 33 45 67 78 80 77 73 66 65 64 66 67 70 73 81 92 98 99 100 100 100 100 100 100 100 100 100 100 100 100
60 66 70 73 70 67 65 56 48 43 39 36 35 33 28 18 13 13 16 25 37 44 48 62 84 86 80 76 70 60 48 34 27 27 29 34 39 49 62 82 100 100 100 100 100 100 100 100 100 100 100 100 100 100
36 37 38 37 37 36 38 39 37 34 27 15 11 12 16 24 29 36 37 43 54 74 86 87 88 81 69 50 30 24 27 32 36 41 44 45 49 53 53 55 63 81 99 100 100 100 100 100 100 100 100 100 100 100

GFSWCAN_700_rhum_015.txt.gz
RH
86 77 65 60 65 71 73 67 53 53 57 51 47 45 44 45 44 42 38 35 34 39 48 60 67 74 70 69 58 56 53 43 35 30 27 25 26 38 51 56 42 38 35 37 66 94 61 43 60 66 66 68 81 83
88 82 71 62 59 68 72 71 66 55 58 60 54 46 42 40 40 41 42 43 39 34 36 46 70 74 75 83 63 57 67 43 40 32 29 27 25 30 33 48 47 57 37 43 46 33 37 52 76 80 71 72 87 77
97 90 74 64 60 61 68 72 71 67 63 61 56 41 39 40 37 34 39 41 44 44 39 37 44 57 72 80 71 55 52 45 39 29 28 32 31 29 29 31 32 51 57 58 63 55 60 79 77 84 90 87 89 90
98 90 79 66 61 58 60 65 69 68 66 63 58 45 46 49 45 40 34 35 40 44 47 44 40 37 45 51 49 47 48 48 42 37 38 39 35 33 33 33 35 29 36 42 45 56 58 69 72 77 86 85 93 99
98 97 90 81 66 58 56 56 60 62 64 64 60 56 52 52 50 42 38 35 41 45 50 45 46 47 46 45 46 46 45 46 49 49 46 43 45 43 45 46 42 30 34 44 46 56 53 62 65 84 90 96 99 99
98 98 98 95 91 69 57 53 51 52 54 56 56 56 55 53 50 46 39 39 40 46 48 50 50 46 51 52 53 54 55 56 55 54 56 60 53 55 61 59 46 43 42 42 47 46 59 74 81 96 100 96 91 99
91 98 99 97 92 90 86 68 58 51 48 46 45 45 45 45 48 46 43 38 40 47 51 53 52 49 50 51 53 55 55 55 57 60 62 62 65 80 79 66 48 54 55 68 63 62 71 86 100 100 98 89 99 84
96 95 94 98 97 90 91 90 86 78 69 58 51 48 47 47 48 48 47 44 43 47 50 59 60 56 53 53 55 54 56 60 63 70 77 74 76 80 90 54 54 49 48 59 53 63 82 98 97 98 99 96 74 41
32 56 74 92 98 98 94 96 94 87 84 80 77 72 66 61 58 54 51 52 56 65 76 75 70 72 69 68 68 69 69 72 73 79 79 85 91 92 55 59 53 51 54 69 91 97 99 98 100 100 92 75 41 31
18 14 13 25 54 87 96 98 95 98 90 90 89 85 81 78 74 76 81 79 82 82 85 79 78 83 77 76 74 75 76 80 83 77 75 73 57 47 43 47 52 60 69 95 100 99 98 98 87 94 76 39 27 23
19 19 18 14 10 9 36 74 80 90 97 98 97 95 93 82 90 86 84 84 83 81 78 75 80 80 81 85 85 84 81 76 71 70 75 67 59 57 65 67 71 90 100 100 100 99 100 100 100 83 42 25 22 21
16 16 16 17 16 14 9 9 57 79 92 99 98 99 100 98 98 96 95 86 78 81 81 82 80 74 80 86 98 94 93 86 74 87 92 77 78 79 82 83 91 100 100 100 100 100 100 98 77 37 25 26 24 18
7 10 13 16 17 17 15 12 8 47 85 100 99 99 98 98 98 98 100 100 100 98 98 98 99 95 93 100 100 99 97 94 94 99 94 95 100 98 96 84 71 82 80 71 88 100 96 53 29 29 31 28 19 18
5 10 15 18 21 20 17 14 12 11 40 94 97 97 97 97 97 96 98 99 98 99 98 98 99 99 99 100 98 98 98 98 98 98 96 100 100 98 96 92 87 93 94 97 96 92 52 35 36 36 29 22 19 18
7 8 12 17 17 24 30 29 22 22 44 85 92 95 96 95 95 94 94 96 96 97 97 98 100 100 100 98 97 97 96 96 96 97 97 96 96 96 94 87 86 88 89 92 76 48 44 41 38 28 21 17 16 16
31 41 44 38 39 45 42 56 65 71 82 86 86 82 83 88 94 92 86 93 97 97 97 98 97 96 96 96 96 96 96 97 97 95 94 94 95 94 93 92 92 88 73 54 50 46 44 33 23 16 13 14 15 18
5 21 31 42 49 55 51 54 60 65 73 80 80 83 85 86 93 96 98 98 96 95 95 95 95 95 95 95 96 96 96 96 95 94 94 93 90 79 74 77 68 58 54 48 44 34 24 16 12 12 14 21 28 32
5 6 25 44 47 47 56 65 76 85 86 79 83 83 80 78 85 88 84 89 90 94 93 93 94 94 94 95 95 94 92 87 85 85 80 68 58 54 54 53 52 49 42 29 22 17 14 14 15 18 26 32 37 54
5 5 7 34 65 61 51 56 66 73 72 74 73 72 65 67 76 80 80 82 82 83 84 87 88 86 78 80 88 90 89 83 72 63 62 61 60 58 56 48 34 27 22 19 17 17 17 19 23 33 41 48 57 61
8 10 12 14 40 67 77 73 57 71 71 73 77 80 71 70 78 78 73 69 66 66 67 68 70 82 93 92 87 80 74 69 64 61 61 63 57 45 35 27 22 20 20 22 24 27 31 41 53 63 61 64 67 65
15 18 18 47 97 78 86 86 75 79 85 78 80 80 84 80 69 66 64 61 61 60 56 53 57 68 74 65 58 49 46 47 50 52 49 45 38 31 27 27 28 30 34 40 62 76 88 91 89 81 85 81 73 65
24 46 56 90 100 97 94 94 89 84 80 79 84 87 83 75 66 62 58 56 52 50 50 52 51 43 39 40 42 45 45 46 45 43 38 34 33 31 31 32 38 45 66 80 79 86 88 94 96 95 93 80 69 66
28 44 87 98 96 96 97 93 92 85 93 86 78 71 66 64 61 57 52 45 42 43 43 42 41 44 48 46 45 43 40 39 38 38 37 35 36 40 43 52 62 65 64 56 48 35 32 38 54 54 64 84 90 84
40 48 78 96 97 95 97 95 93 94 84 76 64 61 55 55 50 46 46 46 43 44 45 46 46 46 46 43 39 36 32 32 40 50 56 55 57 59 64 65 69 71 36 24 32 40 42 36 58 78 91 96 97 92
72 80 92 96 98 90 93 98 99 93 90 81 75 64 57 52 51 53 54 55 49 43 46 47 42 38 37 34 39 48 56 63 68 73 81 84 83 72 55 31 23 25 30 32 34 43 46 35 44 78 96 100 100 100
73 75 88 97 98 98 97 97 97 92 88 82 73 66 58 60 61 60 60 46 44 46 42 42 43 44 53 62 70 75 80 85 89 95 99 82 37 22 20 24 29 33 42 40 43 54 64 54 52 72 91 100 100 100
86 94 96 99 100 98 98 98 97 96 94 72 59 58 60 57 54 51 45 52 52 50 48 49 55 60 64 71 80 89 96 100 99 63 30 23 22 37 49 45 39 38 39 42 46 58 69 78 83 86 95 98 100 100
95 96 96 96 96 95 89 90 81 70 60 56 52 49 50 52 52 54 64 72 64 62 65 74 84 90 95 97 99 99 91 50 28 30 46 49 60 61 59 62 66 65 64 65 70 83 96 96 96 99 100 100 98 99
97 96 95 93 73 56 51 48 44 42 42 44 45 46 46 47 52 60 70 80 90 89 93 96 98 100 99 87 52 29 27 32 47 70 74 67 57 54 49 47 48 50 57 67 85 100 100 100 100 100 100 100 100 100
79 60 55 53 53 48 46 48 49 49 50 53 55 58 63 70 80 84 88 93 91 81 65 51 43 36 28 29 37 47 64 77 73 62 49 36 25 21 20 22 24 28 33 40 53 84 100 100 100 100 100 100 100 100
54 55 57 57 57 58 61 66 71 76 81 85 90 88 86 79 69 56 45 36 28 21 20 25 35 45 52 70 81 77 68 55 40 26 21 22 27 30 30 30 33 40 48 51 53 62 87 100 100 100 100 100 100 100
54 57 59 60 59 61 59 56 51 44 39 37 37 36 36 34 22 15 14 17 31 40 44 48 62 84 90 86 76 55 34 25 24 25 28 33 34 36 34 33 37 44 49 52 60 65 71 100 100 100 100 100 100 100
32 34 35 36 34 29 25 24 23 22 20 16 13 14 14 16 20 26 31 39 50 59 70 88 98 96 87 68 44 30 28 27 29 32 34 40 43 46 47 47 51 55 58 52 57 75 76 93 100 100 100 100 100 100